Home   Weather   Huelva   Past weeks

Flag for Spain Past Weather in Huelva, Spain — Yesterday and Last 2 Weeks

Now
63 °F

Clear.


Feels Like: 63 °F
Forecast: 62 / 83 °F
Wind: 5 mph from East

Location: Rota Airport

Current Time: Oct 1, 2016 at 9:11:56 AM

Latest Report: Oct 1, 2016 at 8:00 AM


Visibility: 10 mi

Pressure: 29.95 "Hg

Humidity: 83%

Dew Point: 57 °F

Location of HuelvaLocation

Past Weather in Huelva — Graph

°F

Huelva Temperature Yesterday

Maximum temperature yesterday: 86 °F (at 5:00 PM)
Minimum temperature yesterday: 66 °F (at 8:00 AM)
Average temperature yesterday: 76 °F

High & Low Weather Summary for the Past Weeks

 TemperatureHumidityPressure
High88 °F (Sep 17, 2:00 PM)100% (Sep 21, 8:00 AM)30.21 "Hg (Sep 21, 8:00 AM)
Low57 °F (Sep 23, 8:00 AM)24% (Sep 17, 5:00 PM)29.92 "Hg (Sep 30, 5:00 PM)
Average72 °F68%30.07 "Hg
* Reported Sep 16 8:00 AM — Oct 1 8:00 AM, Huelva, Weather by CustomWeather, © 2016

Note: Actual official high and low records may vary slightly from our data, if they occured in-between our weather recording intervals... More about our weather records

Advertising

Huelva Weather History for the Previous 24 Hours

Scroll right to see more
 ConditionsComfort  
Time TempWeatherWind HumidityBarometerVisibility
8:00 AM
Sat, Oct 1
63 °FClear.5 mph83%29.95 "Hg10 mi
7:00 AM64 °FClear.2 mph83%29.95 "Hg10 mi
6:00 AM64 °FClear.6 mph83%29.92 "Hg10 mi
5:00 AM66 °FClear.3 mph83%29.95 "Hg10 mi
4:00 AM68 °FClear.2 mph83%29.95 "Hg10 mi
3:00 AM68 °FClear.5 mph78%29.95 "Hg10 mi
2:00 AM70 °FPassing clouds.6 mph73%29.95 "HgN/A
1:00 AM72 °FClear.12 mph73%29.95 "Hg10 mi
12:00 AM72 °FClear.12 mph73%29.98 "Hg10 mi
11:00 PM
Fri, Sep 30
73 °FClear.7 mph69%29.98 "Hg10 mi
10:00 PM73 °FClear.9 mph69%29.95 "Hg10 mi
9:00 PM77 °FPassing clouds.8 mph57%29.95 "HgN/A
8:00 PM77 °FSunny.5 mph61%29.95 "Hg10 mi
7:00 PM81 °FPassing clouds.12 mph54%29.92 "HgN/A
6:00 PM84 °FPassing clouds.13 mph43%29.92 "HgN/A
5:00 PM86 °FPassing clouds.13 mph38%29.92 "HgN/A
4:00 PM82 °FPassing clouds.6 mph42%29.95 "HgN/A
3:00 PM84 °FSunny.7 mph43%29.95 "Hg10 mi
2:00 PM84 °FPassing clouds.6 mph35%29.98 "HgN/A
1:00 PM82 °FPassing clouds.6 mph37%30.01 "HgN/A
12:00 PM81 °FPassing clouds.8 mph37%30.01 "HgN/A
11:00 AM75 °FPassing clouds.6 mph44%30.01 "HgN/A
10:00 AM72 °FSunny.2 mph50%30.01 "Hg10 mi
9:00 AM66 °FSunny.No wind60%30.01 "Hg10 mi
Weather by CustomWeather, © 2016

See weather overviewHow to use our weather pages